Location: Unspecified
(33.6682°S, 0.0000°E)
Time: 21:53:39
(UTC+00:00)

N. Korean satellite - Visible Passes

Search period start: 24 May 2019 00:00
Search period end: 03 June 2019 00:00
Orbit: 456 x 508 km, 97.2° (Epoch: 23 May)

Date Brightness Start Highest point End Pass type
(mag) Time Alt. Az. Time Alt. Az. Time Alt. Az.
24 May 6.5 05:19:33 10° NNE 05:23:00 77° ESE 05:26:01 14° S visible
24 May 7.8 18:23:07 10° S 18:26:42 44° WSW 18:30:15 10° NNW visible
25 May 8.3 04:54:58 10° NE 04:58:05 31° ESE 05:00:40 14° SSE visible
25 May 6.6 17:58:00 10° SSE 18:01:45 79° E 18:05:29 10° N visible
26 May 9.5 04:31:13 10° ENE 04:33:16 15° ESE 04:35:19 10° SE visible
26 May 7.7 06:03:39 10° NNW 06:06:26 23° W 06:09:18 10° SW visible
26 May 7.4 17:33:18 10° SSE 17:36:45 34° E 17:40:10 10° NNE visible
26 May 9.8 19:08:12 10° SW 19:09:48 12° WSW 19:11:24 10° W visible
27 May 6.6 05:37:59 10° N 05:41:22 53° W 05:44:16 14° SSW visible
27 May 8.9 18:41:53 10° SSW 18:45:01 25° WSW 18:48:07 10° NW visible
28 May 6.9 05:12:58 10° NNE 05:16:23 61° ESE 05:18:56 17° S visible
28 May 7.4 18:16:27 10° S 18:20:08 55° WSW 18:23:48 10° NNW visible
29 May 8.6 04:48:33 10° NE 04:51:30 26° ESE 04:53:36 15° SSE visible
29 May 8.4 06:23:16 10° WNW 06:24:56 13° W 06:26:36 10° WSW visible
29 May 6.6 17:51:26 10° SSE 17:55:11 63° E 17:58:54 10° N visible
30 May 9.6 04:25:08 10° E 04:26:41 13° ESE 04:28:15 10° SE visible
30 May 7.4 05:56:46 10° NNW 05:59:47 28° W 06:02:34 12° SW visible
30 May 7.7 17:26:51 10° SE 17:30:08 28° E 17:33:23 10° NNE visible
30 May 9.6 19:01:04 10° SW 19:03:16 15° WSW 19:05:26 10° WNW visible
31 May 6.4 05:31:16 10° N 05:34:43 68° W 05:37:14 18° SSW visible
31 May 8.5 18:35:07 10° SSW 18:38:27 30° WSW 18:41:45 10° NW visible
01 Jun 7.4 05:06:24 10° NNE 05:09:46 48° ESE 05:11:55 20° S visible
01 Jun 7.0 18:09:47 10° S 18:13:33 68° WSW 18:17:16 10° NNW visible
02 Jun 8.9 04:42:09 10° ENE 04:44:54 22° ESE 04:46:35 16° SE visible
02 Jun 8.2 06:16:02 10° NW 06:18:14 16° W 06:20:30 10° SW visible
02 Jun 6.9 17:44:52 10° SSE 17:48:34 51° E 17:52:13 10° N visible
